Location: *
(35.8942°N, 23.3025°E)
Time: 15:13:46
(UTC+00:00)

Tiangong - Pass Details

Date: 10 December 2021
Orbit: 383 x 386 km, 41.5° (Epoch: 21 January)

Event Time Altitude Azimuth Distance (km) Brightness Sun altitude
Rises 16:48:04 0° 265° (W) 2,273 6.5 -18.7°
Reaches altitude 10° 16:50:13 10° 273° (W) 1,418 5.0 -19.1°
Enters shadow 16:53:12 41° 342° (NNW) 581 1.9 -19.7°
